Tracking 33744 objects as of 12-Apr-2026
HD Live streaming from Space Station
objects crossing your sky now

STARLINK-37178

Track STARLINK-37178 now!
10-day predictions
STARLINK-37178 is classified as:


NORAD ID: 68526
Int'l Code: 2026-068U
Perigee: 334.4 km
Apogee: 335.7 km
Inclination: 53.2 °
Period: 91.1 minutes
Semi major axis: 6706 km
RCS: Unknown
Launch date: March 30, 2026
Source: United States (US)
Launch site: AIR FORCE EASTERN TEST RANGE (AFETR)
Your satellite tracking list
Your tracking list is empty




NASA's NSSDC Master Catalog

Two Line Element Set (TLE):
1 68526U 26068U   26102.50001156 -.00049565  00000-0 -24875-3 0  9998
2 68526  53.1592 339.7331 0000956 100.6661  27.7533 15.80896049  3249
Source of the keplerian elements: AFSPC